Location: Follega
(52.8850°N, 5.7362°E)
Time: 03:11:15
(UTC+00:00)

Cosmos 1943 Rocket - Pass Details

Date: 01 June 2020
Orbit: 810 x 845 km, 71.0° (Epoch: 04 July)

Event Time Altitude Azimuth Distance (km) Brightness Sun altitude
Rises 23:15:19 0° 243° (WSW) 3,350 5.1 -14.8°
Reaches altitude 10° 23:17:58 10° 252° (WSW) 2,426 4.4 -14.8°
Maximum altitude 23:23:00 34° 317° (NW) 1,342 3.7 -14.9°
Drops below altitude 10° 23:28:07 10° 22° (NNE) 2,458 5.7 -14.9°
Sets 23:30:48 0° 32° (NNE) 3,401 6.4 -14.9°
